Tracking 29018 objects as of 14-Jun-2024
HD Live streaming from Space Station
objects crossing your sky now

DELTA 1 R/B

Track DELTA 1 R/B now!
10-day predictions


NORAD ID: 575
Int'l Code: 1963-013B
Perigee: 975.3 km
Apogee: 10,784.5 km
Inclination: 42.8 °
Period: 224.9 minutes
Semi major axis: 12250 km
RCS: 0.4447 m2 (medium)
Launch date: May 7, 1963
Source: United States (US)
Launch site: AIR FORCE EASTERN TEST RANGE (AFETR)

Note: This is a ROCKET BODY
Your satellite tracking list
Your tracking list is empty




NASA's NSSDC Master Catalog

Two Line Element Set (TLE):
1 00575U 63013B   24165.39713740 -.00000168  00000-0 -23699-2 0  9990
2 00575  42.7715 342.0305 4003484  39.7430  17.6454  6.40253855428987
Source of the keplerian elements: AFSPC